Location: ??
(35.4609°N, 139.4869°E)
Time: 11:53:26
(UTC+00:00)

Daily predictions for brighter satellites

Satellite Brightness Start Highest point End
(mag) Time Altitude Azimuth Time Altitude Azimuth Time Altitude Azimuth
Meteor 2-8 Rocket 4.4 12:06:50 83° N 12:06:50 83° N 12:12:43 10° N
SPOT 5 4.4 12:09:46 26° NNE 12:09:46 26° NNE 12:12:03 10° N
ERS-1 Rocket 4.2 12:14:09 35° NNE 12:14:09 35° NNE 12:17:08 10° N
Resurs 01 Rocket 3.5 12:15:02 25° W 12:15:02 25° W 12:18:27 10° NW
Cosmos 2237 Rocket 2.9 12:10:32 10° NW 12:15:38 45° W 12:15:38 45° W
Cosmos 2082 4.3 12:24:52 52° NW 12:24:52 52° NW 12:29:51 10° NNE
Cosmos 2227 Rocket 4.0 12:20:39 10° WSW 12:25:24 27° WNW 12:30:12 10° N
COSMOS 2455 4.3 12:49:05 24° W 12:51:32 32° NW 12:56:54 10° N
USA 215 3.9 13:09:38 50° NW 13:09:38 50° NW 13:14:16 10° NW
NOSS 3-1 (C) 4.4 13:00:31 10° NNW 13:07:18 59° NNE 13:07:18 59° NNE
SL-16 R/B 3.9 13:06:34 10° NW 13:09:27 28° NW 13:09:27 28° NW
SL-16 R/B 4.5 15:19:55 22° ENE 15:19:55 22° ENE 15:24:01 10° NNE
ATLAS 5 CENTAUR R/B 4.5 15:15:31 10° N 15:19:39 20° NE 15:19:39 20° NE
Resurs 1-4 Rocket 4.0 16:08:34 10° NNE 16:10:51 27° NNE 16:10:51 27° NNE
Cosmos 2082 Rocket 3.6 16:19:58 10° N 16:24:09 34° NE 16:24:09 34° NE
CZ-2D R/B 3.6 16:25:16 10° N 16:28:10 33° N 16:28:10 33° N
SJ 16-02 4.2 16:34:57 12° N 16:34:57 12° N 16:35:24 10° N
Cosmos 1943 Rocket 3.5 16:42:58 33° E 16:42:58 33° E 16:47:09 10° NE
Cosmos 2278 Rocket 3.8 16:46:30 26° NNW 16:46:30 26° NNW 16:49:34 10° N
ADEOS II 3.2 16:40:06 10° NNE 16:43:31 40° NE 16:43:31 40° NE
CZ-4C R/B 3.3 16:54:46 10° NNW 17:02:20 67° ENE 17:10:50 10° SE
SL-16 R/B 3.5 17:05:01 35° NW 17:05:01 35° NW 17:08:41 10° NNW
SL-4 R/B 4.0 17:02:35 26° N 17:04:11 32° NNE 17:08:28 10° E
ATLAS 5 CENTAUR R/B 3.9 16:58:52 10° NW 17:01:04 25° NW 17:01:04 25° NW
IRS-1D 4.2 17:01:22 10° NNE 17:05:16 52° NNE 17:05:16 52° NNE
IDEFIX/ARIANE 42P 3.3 17:02:15 10° NNE 17:06:56 49° E 17:06:56 49° E
USA 234 3.2 17:01:23 10° NE 17:07:53 70° NW 17:08:02 70° NW
Cosmos 1821 Rocket 4.1 17:01:38 10° N 17:07:16 71° NNW 17:07:16 71° NNW
Cosmos 2369 Rocket 3.5 17:08:47 30° ESE 17:09:29 31° ESE 17:14:20 10° NE
BREEZE-M DEB (TANK) 3.8 17:12:50 75° WSW 17:13:10 76° SW 17:32:11 10° SE
Cosmos 2297 3.8 17:20:07 67° NNW 17:20:07 67° NNW 17:25:12 10° NNE
CZ-4B R/B 4.2 17:15:24 10° NNE 17:19:56 45° E 17:19:56 45° E
X-37B 3.9 17:23:36 13° NNE 17:23:36 13° NNE 17:24:17 10° NE
Nadezhda 3 Rocket 4.4 17:24:31 48° NW 17:24:31 48° NW 17:29:51 10° N
Sich 1 Rocket 4.5 17:20:43 10° N 17:25:09 47° E 17:25:16 47° E
DELTA 2 R/B (1) 4.0 17:30:09 50° NW 17:31:04 56° N 17:36:33 10° E
IRS-1C 4.0 17:31:19 10° NNE 17:36:41 80° ESE 17:37:10 72° SSE
Cosmos 1934 Rocket 3.8 17:39:57 10° N 17:46:13 75° W 17:47:45 53° SSW
CZ-2C R/B 3.9 17:47:43 10° NE 17:52:04 32° E 17:55:51 13° SSE
Resurs 1-4 Rocket 4.3 17:51:10 10° NW 17:51:55 11° NW 17:51:55 11° NW
Cosmos 1900 4.3 17:55:37 64° SSW 17:56:25 86° ESE 18:01:33 10° NNE
CZ-2C R/B 4.0 18:02:11 10° NNE 18:05:47 38° E 18:07:41 23° SSE
NOSS 3-4 (A) 3.8 17:59:55 10° NNW 18:07:13 81° WSW 18:15:15 10° SSE
NOSS 3-4 (C) 3.8 18:00:01 10° NNW 18:07:19 82° WSW 18:15:22 10° SSE
CZ-2D R/B 3.4 18:04:09 10° N 18:08:21 86° W 18:09:07 59° SSW
Cosmos 2082 Rocket 3.9 18:04:25 10° NW 18:05:55 16° WNW 18:05:55 16° WNW
Cosmos 1605 Rocket 3.8 18:05:04 10° N 18:11:11 76° W 18:16:18 16° S
IUS-18 SRM-1 3.9 18:10:59 26° SSE 18:11:30 26° SSE 18:17:51 10° E
Cosmos 489 Rocket 4.5 18:05:36 10° NNW 18:11:38 54° WSW 18:15:37 21° S
Cosmos 1300 Rocket 3.6 18:08:25 10° NNW 18:12:46 55° W 18:12:58 55° WSW
SAR-Lupe-3 4.5 18:10:30 10° NNE 18:14:04 82° ESE 18:14:31 66° S
Cosmos 1461 4.5 18:11:59 19° SSE 18:14:45 35° ESE 18:19:03 10° NE
Cosmos 2151 Rocket 3.5 18:10:13 10° N 18:14:46 88° E 18:17:50 20° S
Cosmos 1766 3.1 18:12:42 10° N 18:16:42 83° W 18:18:02 41° S
ARIANE 5 R/B 2.7 18:12:50 10° N 18:17:54 52° WNW 18:19:24 39° WSW
Okean 2 Rocket 3.0 18:14:36 10° NNW 18:18:58 60° W 18:20:05 44° SSW
ATLAS 2AS CENTAUR R/B 2.8 18:14:18 10° NNW 18:21:32 77° ENE 18:28:10 10° SE
Cosmos 2221 Rocket 4.3 18:22:15 35° W 18:22:18 35° WNW 18:26:27 10° NNW
Cosmos 1733 3.2 18:18:55 10° NNW 18:22:36 55° W 18:22:39 55° W
ADEOS II 4.0 18:21:49 10° NNW 18:24:24 14° WNW 18:24:27 14° WNW
ADEOS Rocket 3.7 18:23:53 30° SW 18:25:47 36° W 18:32:04 10° NNW
Cosmos 1943 Rocket 3.2 18:24:30 26° W 18:25:48 28° WNW 18:30:38 10° N
PAYLOAD A 3.9 18:24:07 10° NNE 18:29:10 88° ESE 18:32:44 19° SSW
MSX 4.4 18:25:04 10° N 18:30:21 39° WNW 18:32:35 28° WSW
Cosmos 2298 Rocket 4.3 18:29:28 32° SW 18:31:36 51° WNW 18:36:46 10° N
Spot 4 Rocket 4.0 18:26:36 10° N 18:31:42 64° WNW 18:34:42 25° SSW
Cosmos 2263 4.2 18:29:25 28° SW 18:32:29 68° WNW 18:38:14 10° NNE
Meteor 2-20 4.5 18:31:17 21° SSW 18:35:22 59° W 18:41:28 10° N
Meteor 1-21 4.4 18:29:48 10° S 18:35:33 78° E 18:41:22 10° NNE
Cosmos 1805 4.3 18:33:20 10° NNW 18:36:09 27° WNW 18:36:09 27° WNW
OAO 1 4.5 18:33:53 25° W 18:37:13 86° S 18:42:46 10° E
Cosmos 2173 Rocket 4.4 18:33:20 10° N 18:39:23 63° E 18:45:26 10° SSE
Cosmos 1867 4.4 18:35:39 11° S 18:40:43 49° ESE 18:45:58 10° NE
Okean 1 Rocket 3.2 18:36:40 10° N 18:41:10 80° E 18:45:34 10° S
SL-08 R/B 3.8 18:38:02 18° SSW 18:41:12 40° W 18:45:47 10° NNW
Cosmos 1470 3.2 18:39:46 10° N 18:43:37 63° E 18:47:26 10° SSE
SL-4 R/B 2.5 18:39:24 10° WNW 18:44:02 47° SW 18:48:31 10° SSE
BREEZE-M DEB (TANK) 2.9 18:41:46 19° SSW 18:44:18 41° SE 18:46:37 10° ENE
IDEFIX/ARIANE 42P 4.1 18:43:04 10° NNW 18:46:28 18° WNW 18:47:44 16° W
Milstar 3 3.7 18:41:57 21° WSW 18:47:04 53° S 18:58:56 10° ESE
Cosmos 1727 Rocket 4.3 18:43:39 18° SSW 18:48:07 47° W 18:54:10 10° N
Cosmos 1707 2.7 18:46:39 10° S 18:50:30 88° E 18:54:22 10° N
Cosmos 1125 Rocket 3.8 18:47:24 21° SW 18:50:39 48° WNW 18:55:44 10° N
CZ-4C R/B 3.9 18:44:16 10° NW 18:50:41 28° WSW 18:57:33 10° SSW
Cosmos 1459 Rocket 4.2 18:45:26 10° N 18:51:49 80° E 18:58:06 10° S
ASTRO E2 3.2 18:50:39 26° WSW 18:52:25 42° S 18:56:10 10° ESE
Cosmos 2369 Rocket 3.1 18:50:36 20° WSW 18:53:23 31° WNW 18:58:20 10° N
FALCON 9 DEB 3.6 18:53:22 29° WSW 18:53:46 31° SW 18:56:33 10° SSE
Cosmos 1378 Rocket 4.3 18:53:14 21° SW 18:55:27 34° WNW 18:59:28 10° NNW
Cosmos 1726 2.2 18:54:14 10° N 18:57:58 81° E 19:01:41 10° S
X-37B 3.4 18:57:23 10° NNW 18:59:20 15° N 19:01:16 10° NE
FALCON 9 DEB 4.4 19:00:16 19° SW 19:00:16 19° SW 19:02:01 10° S
Cosmos 1400 Rocket 2.8 18:57:54 10° NNW 19:02:02 72° W 19:06:07 10° S
In-Cosmos 22 4.4 19:02:10 10° S 19:07:55 84° E 19:13:42 10° N
GPS 2-04 Rocket1 4.0 19:12:16 10° SSW 19:15:01 24° SSE 19:17:49 10° E
DELTA 2 R/B (1) 3.6 19:12:13 10° WNW 19:17:47 89° SSW 19:23:23 10° ESE
BREEZE-M DEB (TANK) 3.8 19:21:07 12° SW 19:21:10 12° SW 19:22:09 10° SSW
Centaur D-1AR AC-39 4.2 19:16:39 10° SW 19:21:52 34° SSE 19:44:23 10° ESE
FENGYUN 3A 3.9 19:19:04 10° N 19:24:16 51° WNW 19:29:26 10° SSW
ALOS 2.7 19:23:54 10° N 19:28:19 44° WNW 19:32:44 10° SW
CZ-2C R/B 3.6 19:26:16 10° NNW 19:30:05 24° WNW 19:34:00 10° WSW
Meteor 2-11 Rocket 4.5 19:26:32 10° NNW 19:32:37 68° W 19:38:41 10° S
BREEZE-M DEB (TANK) 4.5 19:28:05 10° WSW 19:33:24 66° NNW 19:54:24 10° NE
CZ-4B R/B 4.4 19:30:29 10° NNE 19:34:49 73° ESE 19:39:15 10° S
